Weather History for KTNU - October, 2013

Change the Weather History Date:

Thursday, October 10, 2013

  Actual Average Record
Temperature  
Mean Temperature 62 °F -  
Max Temperature 77 °F 63 °F 80 °F (2011)
Min Temperature 46 °F 41 °F 28 °F (2012)
Degree Days  
Heating Degree Days 4    
Growing Degree Days 12 (Base 50)    
Moisture  
Dew Point 48 °F    
Average Humidity 66    
Maximum Humidity 93    
Minimum Humidity 36    
Precipitation  
Precipitation 0.00 in - - ()
Sea Level Pressure  
Sea Level Pressure 30.02 in    
Wind  
Wind Speed 8 mph (SSE)    
Max Wind Speed 15 mph    
Max Gust Speed 21 mph    
Visibility 10 miles    
Events      
Averages and records for this station are not official NWS values.
T = Trace of Precipitation, MM = Missing Value Source: NWS Daily Summary

Daily Weather History Graph

Daily Weather History Graph

Search for Another Location

Airport or City:

Trip Planner

Search our weather history database for the weather conditions in past years. The results will help you decide how hot, cold, wet, or windy it might be!

Date:

Astronomy

Oct. 10, 2013 Rise Set
Actual Time 7:18 AM CDT 6:38 PM CDT
Civil Twilight 6:51 AM CDT 7:06 PM CDT
Nautical Twilight 6:18 AM CDT 7:38 PM CDT
Astronomical Twilight 5:46 AM CDT 8:10 PM CDT
Moon 1:14 PM CDT (10/10) 11:13 PM CDT (10/10)
Length of Visible Light 12h 15m
Length of Day
11h 19m
Waxing Crescent, 36% of the Moon is Illuminated
Oct 10
Waxing Crescent
Oct 11
First Quarter
Oct 18
Full
Oct 26
Last Quarter
Nov 3
New

Hourly Weather History & Observations

Time (CDT) Temp. Windchill Dew Point Humidity Pressure Visibility Wind Dir Wind Speed Gust Speed Precip Events Conditions
12:15 AM 51.8 °F - 42.8 °F 71% 30.07 in 10.0 mi SSE 9.2 mph - N/A   Clear
12:35 AM 51.8 °F - 42.8 °F 71% 30.07 in 10.0 mi SSE 8.1 mph - N/A   Clear
12:55 AM 51.8 °F - 42.8 °F 71% 30.07 in 10.0 mi SSE 6.9 mph - N/A   Clear
1:15 AM 50.0 °F - 42.8 °F 76% 30.07 in 10.0 mi SSE 5.8 mph - N/A   Clear
1:35 AM 50.0 °F - 42.8 °F 76% 30.08 in 10.0 mi SSE 6.9 mph - N/A   Clear
1:55 AM 50.0 °F - 42.8 °F 76% 30.08 in 10.0 mi SSE 6.9 mph - N/A   Clear
2:15 AM 50.0 °F - 42.8 °F 76% 30.08 in 10.0 mi SE 6.9 mph - N/A   Clear
2:35 AM 50.0 °F - 42.8 °F 76% 30.08 in 10.0 mi SE 5.8 mph - N/A   Clear
2:55 AM 48.2 °F - 42.8 °F 82% 30.07 in 10.0 mi ESE 6.9 mph - N/A   Clear
3:15 AM 48.2 °F - 42.8 °F 82% 30.07 in 10.0 mi ESE 4.6 mph - N/A   Clear
3:35 AM 48.2 °F - 42.8 °F 82% 30.07 in 10.0 mi SE 5.8 mph - N/A   Clear
3:55 AM 48.2 °F - 42.8 °F 82% 30.08 in 10.0 mi SE 4.6 mph - N/A   Clear
4:15 AM 48.2 °F - 42.8 °F 82% 30.07 in 10.0 mi SE 5.8 mph - N/A   Clear
4:35 AM 48.2 °F - 42.8 °F 82% 30.08 in 10.0 mi ESE 4.6 mph - N/A   Clear
4:55 AM 48.2 °F - 42.8 °F 82% 30.08 in 10.0 mi ESE 4.6 mph - N/A   Clear
5:15 AM 46.4 °F 43.5 °F 42.8 °F 87% 30.07 in 10.0 mi SE 5.8 mph - N/A   Clear
5:35 AM 46.4 °F 42.9 °F 42.8 °F 87% 30.07 in 10.0 mi SE 6.9 mph - N/A   Clear
5:55 AM - - - N/A% 30.07 in 10.0 mi Calm Calm - N/A   Unknown
6:15 AM 48.2 °F - 44.6 °F 87% 30.08 in 10.0 mi Calm Calm - N/A   Unknown
6:35 AM 48.2 °F - 44.6 °F 87% 30.08 in 10.0 mi SE 3.5 mph - N/A   Clear
6:55 AM 46.4 °F 44.3 °F 42.8 °F 87% 30.07 in 10.0 mi ESE 4.6 mph - N/A   Clear
7:15 AM 46.4 °F 45.2 °F 44.6 °F 93% 30.08 in 9.0 mi SE 3.5 mph - N/A   Clear
7:35 AM 46.4 °F 44.3 °F 44.6 °F 93% 30.08 in 9.0 mi SE 4.6 mph - N/A   Clear
7:55 AM 46.4 °F 44.3 °F 42.8 °F 87% 30.08 in 8.0 mi SE 4.6 mph - N/A   Clear
8:15 AM 50.0 °F - 46.4 °F 87% 30.09 in 8.0 mi SSE 5.8 mph - N/A   Clear
8:35 AM 51.8 °F - 46.4 °F 82% 30.08 in 9.0 mi SE 5.8 mph - N/A   Clear
8:55 AM 53.6 °F - 48.2 °F 82% 30.08 in 9.0 mi SE 8.1 mph - N/A   Clear
9:15 AM 55.4 °F - 48.2 °F 77% 30.08 in 10.0 mi SSE 6.9 mph - N/A   Clear
9:35 AM 55.4 °F - 48.2 °F 77% 30.08 in 10.0 mi SE 6.9 mph - N/A   Clear
9:55 AM 59.0 °F - 50.0 °F 72% 30.07 in 9.0 mi SE 8.1 mph - N/A   Clear
10:15 AM 60.8 °F - 50.0 °F 68% 30.08 in 10.0 mi SE 8.1 mph - N/A   Clear
10:35 AM 64.4 °F - 51.8 °F 64% 30.07 in 10.0 mi South 9.2 mph - N/A   Clear
10:55 AM 66.2 °F - 51.8 °F 60% 30.08 in 10.0 mi SSE 8.1 mph - N/A   Clear
11:15 AM 66.2 °F - 51.8 °F 60% 30.07 in 10.0 mi SSE 9.2 mph - N/A   Clear
11:35 AM 69.8 °F - 51.8 °F 53% 30.06 in 10.0 mi South 9.2 mph - N/A   Clear
11:55 AM 69.8 °F - 51.8 °F 53% 30.06 in 10.0 mi SSE 11.5 mph - N/A   Clear
12:15 PM 71.6 °F - 50.0 °F 46% 30.05 in 9.0 mi SSE 11.5 mph - N/A   Clear
12:35 PM 73.4 °F - 50.0 °F 44% 30.04 in 10.0 mi South 9.2 mph 16.1 mph N/A   Clear
12:55 PM 73.4 °F - 48.2 °F 41% 30.03 in 9.0 mi South 11.5 mph - N/A   Clear
1:15 PM 73.4 °F - 50.0 °F 44% 30.03 in 10.0 mi SSE 10.4 mph 18.4 mph N/A   Clear
1:35 PM 75.2 °F - 50.0 °F 41% 30.02 in 10.0 mi SSE 9.2 mph 17.3 mph N/A   Clear
1:55 PM 75.2 °F - 48.2 °F 38% 30.01 in 10.0 mi SSE 11.5 mph 18.4 mph N/A   Clear
2:15 PM 75.2 °F - 48.2 °F 38% 30.00 in 10.0 mi South 11.5 mph 18.4 mph N/A   Clear
2:35 PM 75.2 °F - 48.2 °F 38% 29.99 in 10.0 mi South 13.8 mph 19.6 mph N/A   Clear
2:55 PM 77.0 °F - 50.0 °F 39% 29.99 in 10.0 mi SSE 13.8 mph - N/A   Clear
3:15 PM 77.0 °F - 50.0 °F 39% 29.98 in 10.0 mi SSE 11.5 mph 18.4 mph N/A   Clear
3:35 PM 77.0 °F - 50.0 °F 39% 29.97 in 10.0 mi SSE 11.5 mph 18.4 mph N/A   Clear
3:55 PM 77.0 °F - 48.2 °F 36% 29.96 in 9.0 mi SSE 12.7 mph - N/A   Clear
4:15 PM 77.0 °F - 48.2 °F 36% 29.95 in 10.0 mi SSE 13.8 mph 20.7 mph N/A   Clear
4:35 PM 77.0 °F - 48.2 °F 36% 29.95 in 10.0 mi South 15.0 mph - N/A   Clear
4:55 PM 77.0 °F - 48.2 °F 36% 29.95 in 9.0 mi SSE 12.7 mph 18.4 mph N/A   Clear
5:15 PM 75.2 °F - 48.2 °F 38% 29.95 in 10.0 mi SSE 13.8 mph - N/A   Clear
5:35 PM 75.2 °F - 50.0 °F 41% 29.95 in 10.0 mi SSE 11.5 mph 17.3 mph N/A   Clear
5:55 PM 71.6 °F - 50.0 °F 46% 29.94 in 10.0 mi SSE 10.4 mph 16.1 mph N/A   Clear
6:15 PM 69.8 °F - 50.0 °F 49% 29.94 in 10.0 mi SSE 6.9 mph - N/A   Clear
6:35 PM 68.0 °F - 51.8 °F 56% 29.94 in 9.0 mi SSE 6.9 mph - N/A   Clear
6:55 PM 66.2 °F - 50.0 °F 56% 29.94 in 10.0 mi SSE 6.9 mph - N/A   Clear
7:15 PM 64.4 °F - 50.0 °F 59% 29.94 in 10.0 mi SSE 6.9 mph - N/A   Clear
7:35 PM 64.4 °F - 50.0 °F 59% 29.94 in 10.0 mi SE 8.1 mph - N/A   Clear
7:55 PM 62.6 °F - 50.0 °F 63% 29.94 in 10.0 mi SE 9.2 mph - N/A   Clear
8:15 PM 60.8 °F - 50.0 °F 68% 29.94 in 10.0 mi SE 8.1 mph - N/A   Clear
8:35 PM 60.8 °F - 50.0 °F 68% 29.94 in 10.0 mi SE 8.1 mph - N/A   Clear
8:55 PM 60.8 °F - 50.0 °F 68% 29.94 in 10.0 mi SE 8.1 mph - N/A   Clear
9:15 PM 60.8 °F - 50.0 °F 68% 29.94 in 10.0 mi SE 10.4 mph - N/A   Clear
9:35 PM 59.0 °F - 50.0 °F 72% 29.93 in 10.0 mi SE 8.1 mph - N/A   Clear
9:55 PM 59.0 °F - 50.0 °F 72% 29.94 in 10.0 mi SE 9.2 mph - N/A   Clear
10:15 PM 57.2 °F - 50.0 °F 77% 29.94 in 10.0 mi SE 10.4 mph - N/A   Clear
10:35 PM 57.2 °F - 50.0 °F 77% 29.94 in 10.0 mi SSE 8.1 mph - N/A   Clear
10:55 PM 57.2 °F - 50.0 °F 77% 29.94 in 10.0 mi SSE 6.9 mph - N/A   Clear
11:15 PM 57.2 °F - 50.0 °F 77% 29.93 in 10.0 mi SSE 5.8 mph - N/A   Clear
11:35 PM 55.4 °F - 50.0 °F 82% 29.93 in 10.0 mi SSE 6.9 mph - N/A   Clear
11:55 PM 55.4 °F - 50.0 °F 82% 29.92 in 10.0 mi SSE 5.8 mph - N/A   Clear